Virtual Norwegian is not affiliated with Norwegian Air Shuttle in any way.
If you are looking for the real "Norwegian", or you wish to book Norwegian flights, please visit Norwegian.com


We use cookies to ensure you get the best experience on our website.   ACCEPT

ENDU - BDU - Bardufoss (Bardufoss)

General Info Alternate Airport
ICAO: ENDU Elevation: 252 ft ICAO: ENTC
IATA: BDU Country: Norway IATA: TOS
City: Bardufoss Charts: Log in to view charts City: Tromso
Name: Bardufoss Hub: No Name Langnes
General Info
ICAO: ENDU
IATA: BDU
City: Bardufoss
Name: Bardufoss
Elevation: 252 ft
Country: Norway
Charts: Log in to view charts
Hub: No
 
Alternate Airport
ICAO: ENTC
IATA: TOS
City: Tromso
Name: Langnes

Weather
160720Z 00000KT 9999 VCSH FEW030 SCT040 BKN060 06/04 Q1011 TEMPO 22010KT RMK WIND 1100FT 15006KT WIND 2200FT 20020KT
Weather
160720Z 00000KT 9999 VCSH FEW030 SCT040 BKN060 06/04 Q1011 TEMPO 22010KT RMK WIND 1100FT 15006KT WIND 2200FT 20020KT

Runway Info
10
Length ILS/LOC Course
2443 m 110.30 107
28
Length ILS/LOC Course
2443 m 108.70 282

NOTAMs
NOTAMs currently unavailable.
NOTAMs
NOTAMs currently unavailable

Route map
Airport
Airport (hub)